SCP
0 0 0 0 0 0 0 0 0 0 0 0 0 -0 -0 -0 0 0 0 0 0 0 0 0 0 0 0 0 0 0 0 0 0 0 0 0 0 0 0 0 0 0 0 0 0 0 0 0 0
0 0 0 0 0 0 0 0 0 0 0 0 0 0 -0 -0 0 0 0 0 0 0 0 0 0 0 0 0 0 0 0 0 0 0 0 0 0 0 0 0 0 0 0 0 0 0 0 0 0
0 0 0 0 0 0 0 0 0 0 0 0 0 0 0 0 0 0 0 0 0 0 0 0 0 0 0 0 0 0 0 0 0 0 0 0 0 0 0 0 0 0 0 0 0 0 0 0 0
0 0 0 0 0 0 0 0 0 0 0 0 0 0 0 0 0 0 0 0 0 0 0 0 0 0 0 0 0 0 0 0 0 0 0 0 0 0 0 0 0 0 0 0 0 0 0 0 0
0 0 0 0 0 0 0 0 0 0 0 0 0 0 0 0 0 0 0 0 0 0 0 0 0 0 0 0 0 0 0 0 0 0 0 0 0 0 0 0 0 0 0 0 0 0 0 0 0
0 0 0 0 0 0 0 0 0 0 0 0 0 0 0 0 0 0 0 0 0 0 0 0 0 0 0 0 0 0 0 0 0 0 0 0 0 0 0 0 0 0 0 0 0 0 0 0 0
0 0 0 0 0 0 0 0 0 0 0 0 0 0 0 0 0 0 0 0 0 0 0 0 0 0 0 0 0 0 0 0 0 0 0 0 0 0 0 0 0 0 0 0 0 0 0 0 0
0 0 0 0 0 0 0 0 0 0 0 0 0 0 0 0 0 0 0 0 0 0 0 0 0 0 0 0 0 0 0 0 0 0 0 0 0 0 0 0 0 0 0 0 0 0 0 0 0
0 0 0 0 0 0 0 0 0 0 0 0 0 0 0 0 0 0 0 0 0 0 0 0 0 0 0 0 0 0 0 0 0 0 0 0 0 0 0 0 0 0 0 0 0 0 0 0 0
0 0 0 0 0 0 0 0 0 0 0 0 0 0 0 0 0 0 0 0 0 0 0 0 0 0 0 0 0 0 0 0 0 0 0 0 0 0 0 0 0 0 0 0 0 0 0 0 0
0 0 0 0 0 0 0 0 0 0 0 0 0 0 0 0 0 0 0 0 0 0 0 0 0 0 0 0 0 0 0 0 0 0 0 0 0 0 0 0 0 0 0 0 0 0 0 0 0
0 0 0 0 0 0 0 0 0 0 0 0 0 0 0 0 0 0 0 0 0 0 0 0 0 0 0 0 0 0 0 0 0 0 0 0 0 0 0 0 0 0 0 0 0 0 0 0 0
0 0 0 0 0 0 0 0 0 0 0 0 0 0 0 0 0 0 0 0 0 0 0 0 0 0 0 0 0 0 0 0 0 0 0 0 0 0 0 0 0 0 0 0 0 0 0 0 0
0 0 0 0 0 0 0 0 0 0 0 0 0 0 0 0 0 0 0 0 0 0 0 0 0 0 0 0 0 0 0 0 0 0 0 0 0 0 0 0 0 0 0 0 0 0 0 0 0
0 0 0 0 0 0 0 0 0 0 0 0 0 0 0 0 0 0 0 0 0 0 0 0 0 0 0 0 0 0 0 0 0 0 0 0 0 0 0 0 0 0 0 0 0 0 0 0 0
0 0 0 0 0 0 0 0 0 0 0 0 0 0 0 0 0 0 0 0 0 0 0 0 0 0 0 0 0 0 0 0 0 0 0 0 0 0 0 0 0 0 0 0 0 0 0 0 0
0 0 0 0 0 0 0 0 0 0 0 0 0 0 0 0 0 0 0 0 0 0 0 0 0 0 0 0 0 0 0 0 0 0 0 0 0 0 0 0 0 0 0 0 0 0 0 0 0
0 0 0 0 0 0 0 0 0 0 0 0 0 0 0 0 0 0 0 0 0 0 0 0 0 0 0 0 0 0 0 0 0 0 0 0 0 0 0 0 0 0 0 0 0 0 0 0 0
0 0 0 0 0 0 0 0 0 0 0 0 0 0 0 0 0 0 0 0 0 0 0 0 0 0 0 0 0 0 0 0 0 0 0 0 0 0 0 0 0 0 0 0 0 0 0 0 0
0 0 0 0 0 0 0 0 0 0 0 0 0 0 0 0 0 0 0 0 0 0 0 0 0 0 0 0 0 0 0 0 0 0 0 0 0 0 0 0 0 0 0 0 0 0 0 0 0
0 0 0 0 0 0 0 0 0 0 0 0 0 0 0 0 0 0 0 0 0 0 0 0 0 0 0 0 0 0 0 0 0 0 0 0 0 0 0 0 0 0 0 0 0 0 0 0 0
0 0 0 0 0 0 0 0 0 0 0 0 0 0 0 0 0 0 0 0 0 0 0 0 0 0 0 0 0 0 0 0 0 0 0 0 0 0 0 0 0 0 0 0 0 0 0 0 0
0 0 0 0 0 0 0 0 0 0 0 0 0 0 0 0 0 0 0 0 0 0 0 0 0 0 0 0 0 0 0 0 0 0 0 0 0 0 0 0 0 0 0 0 0 0 0 0 0
0 0 0 0 0 0 0 0 0 0 0 0 0 0 0 0 0 0 0 0 0 0 0 0 0 0 0 0 0 0 0 0 0 0 0 0 0 0 0 0 0 0 0 0 0 0 0 0 0
0 0 0 0 0 0 0 0 0 0 0 0 0 0 0 0 0 0 0 0 0 0 0 0 0 0 0 0 0 0 0 0 0 0 0 0 0 0 0 0 0 0 0 0 0 0 0 0 0
0 0 0 0 0 0 0 0 0 0 0 0 0 0 0 0 0 0 0 0 0 0 0 0 0 0 0 0 0 0 0 0 0 0 0 0 0 0 0 0 0 0 0 0 0 0 0 0 0
0 0 0 0 0 0 0 0 0 0 0 0 0 0 0 0 0 0 0 0 0 0 0 0 0 0 0 0 0 0 0 0 0 0 0 0 0 0 0 0 0 0 0 0 0 0 0 0 0
0 0 0 0 0 0 0 0 0 0 0 0 0 0 0 0 0 0 0 0 0 0 0 0 0 0 0 0 0 0 0 0 0 0 0 0 0 0 0 0 0 0 0 0 0 0 0 0 0
0 0 0 0 0 0 0 0 0 0 0 0 0 0 0 0 0 0 0 0 0 0 0 0 0 0 0 0 0 0 0 0 0 0 0 0 0 0 0 0 0 0 0 0 0 0 0 0 0
0 0 0 0 0 0 0 0 0 0 0 0 0 0 0 0 0 0 0 0 0 0 0 0 0 0 0 0 0 0 0 0 0 0 0 0 0 0 0 0 0 0 0 0 0 0 0 0 0
Wind_Speed
10 7 3 3 2 1 2 3 2 3 3 2 2 2 2 1 2 4 5 9 10 12 11 11 10 11 12 12 13 13 14 14 14 14 14 14 14 14 14 14 14 15 16 16 16 16 16 16 16
9 6 2 2 3 3 3 3 4 3 4 5 3 2 2 2 3 4 7 9 11 11 11 11 11 11 12 12 12 13 13 14 14 14 13 13 13 13 13 13 13 14 15 15 16 16 16 16 16
5 3 2 1 2 2 2 3 3 4 5 3 3 1 1 2 3 5 6 11 11 11 10 11 10 11 12 12 12 13 13 13 14 14 13 13 13 13 12 13 13 14 14 15 15 15 15 15 15
4 1 1 3 3 1 0 2 4 7 5 2 2 3 2 2 2 5 9 12 12 11 10 11 9 11 12 12 12 13 13 13 13 13 13 13 13 12 12 12 13 13 14 14 15 15 14 14 14
2 2 3 4 4 2 1 1 5 6 5 4 4 2 4 4 3 8 11 12 11 11 10 12 9 10 11 11 12 12 13 13 13 13 13 13 12 12 12 12 12 13 13 14 14 14 13 13 13
1 2 5 7 6 3 2 3 5 6 4 4 4 3 5 4 6 9 12 11 11 11 10 11 9 9 9 10 10 11 11 12 12 12 12 12 12 12 12 11 12 12 13 13 13 13 12 12 12
2 3 6 7 6 5 3 4 5 6 6 5 4 4 5 6 7 10 11 10 10 10 10 9 11 10 9 9 9 10 10 10 11 11 10 10 10 10 10 10 10 11 12 12 12 12 12 11 11
1 3 6 8 8 7 3 4 2 5 3 2 4 4 3 8 10 10 10 9 9 9 10 9 10 10 10 10 9 9 9 10 10 10 9 9 9 9 8 8 9 10 11 11 10 11 11 10 10
2 6 9 9 8 5 4 4 2 1 3 3 3 2 3 11 12 11 9 9 9 9 9 9 10 10 9 9 9 9 9 9 10 9 10 8 8 9 7 8 8 9 9 10 10 10 10 9 8
5 9 11 6 6 4 4 4 3 5 5 5 5 3 5 12 13 14 13 13 13 12 11 9 10 10 10 7 8 8 8 9 8 8 9 7 6 5 6 8 7 7 7 8 8 9 9 5 5
7 9 8 6 5 4 4 4 4 6 7 7 7 7 10 12 14 15 15 14 14 13 12 11 10 10 10 7 7 5 5 6 7 9 9 7 6 5 5 5 6 7 7 7 7 7 5 4 3
7 8 7 6 5 5 5 4 6 9 8 2 4 6 12 15 16 17 16 14 13 13 14 12 11 10 10 8 7 6 5 5 6 7 9 7 5 6 6 5 6 6 5 5 5 4 5 4 4
11 8 7 7 5 6 6 8 8 11 9 5 4 8 12 15 16 15 14 13 14 14 14 14 13 12 10 9 7 7 7 7 7 7 8 9 7 7 6 5 5 6 5 6 5 5 5 5 4
8 9 8 7 8 6 9 11 10 13 8 7 8 10 12 14 16 14 15 15 16 15 15 14 14 13 12 10 9 8 7 7 7 7 9 10 8 7 7 7 6 6 6 6 6 6 5 4 4
5 9 11 10 9 6 7 15 17 15 10 12 11 11 12 13 14 16 17 17 16 16 15 15 14 14 13 12 11 8 8 8 8 8 9 11 9 9 8 7 7 7 7 7 6 6 5 5 5
7 10 13 11 10 9 10 19 14 11 12 15 14 13 12 13 15 15 16 16 15 15 16 16 13 14 15 13 11 9 8 9 8 8 9 12 11 11 9 7 8 8 7 7 7 6 6 6 6
11 15 17 12 11 10 14 17 12 10 13 16 15 14 13 13 15 15 16 16 16 16 16 16 16 16 15 14 11 10 9 10 9 9 9 11 12 12 10 8 8 9 8 8 7 7 7 7 6
15 16 16 16 9 13 17 19 14 11 12 16 16 15 14 15 16 15 15 15 15 16 16 17 17 17 15 12 10 9 10 10 9 9 10 12 11 13 11 9 10 10 8 9 9 9 8 7 6
15 16 18 14 9 12 18 22 20 17 16 18 18 17 16 17 16 14 13 14 15 16 17 18 18 17 14 12 12 11 11 10 10 10 12 14 13 14 13 10 11 10 10 11 11 10 10 8 6
18 19 19 11 9 11 15 22 21 20 21 20 20 20 19 18 16 15 14 14 16 17 18 19 19 19 18 14 13 11 11 10 11 10 12 15 15 15 13 14 11 11 10 12 12 11 8 7 8
22 22 20 12 5 8 10 19 22 21 21 21 21 21 21 20 19 17 16 16 16 18 19 17 20 20 20 19 13 10 10 9 10 13 13 15 16 16 15 16 14 13 12 11 13 13 14 10 9
22 20 17 13 10 10 10 15 20 18 20 21 22 21 22 21 20 19 18 17 17 18 18 19 20 21 20 19 16 17 15 15 17 13 12 14 16 17 17 17 16 15 13 13 14 14 12 13 10
14 11 14 14 14 13 12 15 17 13 20 21 20 21 21 20 20 20 19 18 18 17 16 17 19 20 20 21 21 20 18 16 13 14 15 15 14 17 18 17 16 16 14 15 15 14 14 12 12
9 7 8 10 11 18 22 18 19 16 20 18 17 18 19 19 19 20 19 17 17 16 15 16 18 20 20 22 22 22 23 20 18 17 15 14 12 13 18 18 17 16 15 16 16 15 17 14 15
13 10 8 11 12 16 16 18 20 15 17 18 18 17 17 17 18 18 18 17 16 16 16 17 19 20 20 22 23 23 24 23 23 19 17 16 13 13 17 17 17 16 16 16 15 15 16 17 17
21 19 13 11 11 11 11 19 17 11 13 15 16 16 15 16 16 16 17 16 16 16 16 17 18 20 20 21 22 22 23 18 16 20 17 17 14 15 17 18 17 18 17 16 15 13 15 14 16
17 19 15 8 5 8 10 14 15 8 12 14 16 15 16 16 16 16 16 15 15 14 15 16 17 18 19 20 21 21 22 21 20 19 19 16 15 14 17 17 17 18 17 17 16 13 15 14 15
14 10 8 11 10 13 13 17 15 12 14 13 14 15 15 15 14 15 14 14 13 13 13 14 16 17 18 18 18 16 20 21 20 18 19 18 18 17 16 16 17 17 16 16 16 13 14 15 14
16 16 12 8 7 10 13 14 10 13 11 12 13 13 14 14 13 13 12 11 11 11 11 12 13 15 15 16 17 18 18 19 19 18 19 18 17 17 17 16 16 16 16 16 15 15 14 16 15
17 19 19 13 11 9 10 14 4 6 6 8 10 10 11 12 12 12 11 10 10 10 10 11 12 13 14 15 15 17 17 17 18 19 19 18 17 16 16 16 16 16 16 16 16 16 16 16 16
Wind_Direction
330 333 304 274 239 177 125 120 154 150 147 113 138 198 220 301 337 51 99 146 142 143 143 142 134 133 131 130 129 127 126 123 121 118 116 115 113 111 109 107 106 105 102 101 99 97 95 94 92
334 328 295 289 254 214 147 150 179 148 109 124 137 176 194 126 53 95 140 151 149 145 146 143 134 136 135 133 133 131 128 127 124 121 119 118 117 115 114 112 111 109 107 105 103 101 99 97 95
329 337 328 253 238 241 143 152 162 120 136 163 151 173 318 80 121 141 143 153 152 147 147 137 139 139 139 137 136 134 132 131 128 126 124 122 121 120 118 117 115 113 111 109 107 105 102 99 96
317 286 255 239 207 201 168 135 153 151 163 188 189 158 132 62 128 141 144 156 154 150 150 143 144 142 143 142 140 138 136 134 132 130 128 127 126 124 122 120 117 115 113 112 110 108 105 102 99
327 287 226 222 216 181 205 168 175 177 174 172 202 175 138 120 128 141 152 160 157 154 154 150 147 144 144 145 143 142 139 136 134 132 133 131 130 130 128 124 122 119 117 117 115 112 108 105 101
299 238 231 227 216 207 204 183 186 199 182 172 198 184 130 128 154 153 158 164 162 159 157 154 146 145 146 145 143 142 141 139 137 136 136 136 136 136 134 130 126 125 123 122 120 116 112 107 102
246 231 237 235 229 221 195 176 205 203 203 191 196 188 141 160 162 157 161 164 165 164 165 164 162 158 149 145 142 142 140 139 138 138 135 134 136 137 134 132 132 130 127 125 123 121 116 111 105
271 223 224 226 230 226 173 176 217 223 213 124 198 219 148 157 153 155 159 165 168 173 175 171 170 169 167 161 146 142 140 138 135 131 128 127 128 128 127 138 135 134 132 131 129 127 121 113 107
210 226 227 222 226 224 175 194 161 220 166 173 209 317 51 136 150 157 163 173 177 182 184 181 177 176 173 169 157 153 144 138 139 137 133 147 156 152 151 145 136 136 134 135 134 129 120 117 110
202 228 231 229 230 225 195 219 193 194 205 206 204 178 140 154 166 175 182 185 187 188 189 188 186 181 177 169 169 170 167 164 170 164 163 170 163 158 154 128 127 127 130 135 132 127 133 151 135
205 231 233 223 226 240 226 230 210 226 230 227 221 185 165 175 183 190 194 195 195 192 191 194 191 187 183 177 178 176 174 175 178 175 174 172 168 163 168 158 152 154 159 159 146 157 163 158 146
213 229 229 223 212 224 236 234 225 233 245 272 247 178 176 188 196 199 200 200 198 198 197 196 194 192 191 187 185 183 182 182 183 182 182 179 179 180 178 181 177 176 179 175 176 173 167 164 162
219 225 229 235 219 235 244 243 251 248 249 259 234 188 195 201 205 207 205 203 202 203 201 198 198 197 194 192 191 191 191 192 190 187 190 192 187 188 187 187 186 189 185 186 186 183 176 178 178
219 227 233 236 230 228 241 252 248 250 244 240 227 219 214 212 210 207 206 207 207 207 204 200 200 201 198 198 198 196 197 195 196 196 196 198 198 192 192 194 194 195 194 195 196 193 190 192 192
212 232 241 236 230 227 238 250 238 247 243 242 238 234 229 225 218 215 212 211 209 208 206 203 202 202 202 203 204 202 200 199 202 202 202 201 204 200 199 200 201 200 197 196 199 197 201 202 202
202 226 236 223 219 216 222 251 243 238 237 244 244 239 235 232 227 224 220 217 213 209 207 205 201 203 204 205 205 206 204 204 207 205 205 206 207 205 203 205 206 202 198 200 203 203 205 208 211
208 226 232 229 212 208 221 251 253 237 234 245 247 244 239 239 235 229 223 219 216 212 208 206 204 206 206 207 207 208 207 209 211 209 208 208 207 207 208 210 209 202 204 206 206 211 214 216 216
207 220 227 228 205 210 229 244 247 242 239 246 250 249 244 242 240 234 226 221 217 215 212 210 208 208 206 205 208 210 212 213 214 214 212 209 208 208 211 212 211 206 209 210 210 214 216 225 221
224 223 228 230 209 215 238 249 250 248 246 249 250 249 248 247 247 241 231 222 217 215 214 212 210 208 204 203 205 207 211 212 214 216 215 213 211 208 211 213 212 208 213 214 213 214 216 218 212
225 230 234 235 215 226 251 257 255 250 248 248 250 249 249 251 248 240 233 223 217 216 214 214 214 210 206 207 207 210 212 215 216 215 217 216 213 211 210 213 213 210 215 217 215 213 216 214 204
221 226 229 226 206 228 264 264 252 246 246 247 246 248 248 247 247 244 236 229 222 219 217 214 213 212 210 209 208 207 211 216 214 215 216 215 214 213 213 214 215 213 214 217 215 212 216 217 210
225 224 231 225 221 233 224 266 257 248 245 242 242 242 243 243 243 244 241 236 228 224 220 218 217 214 212 208 208 207 208 213 216 216 215 214 213 215 215 216 215 215 214 218 217 215 217 220 218
225 214 219 223 230 245 230 252 262 244 247 244 239 238 240 241 241 243 241 240 237 229 223 220 219 217 214 210 210 211 217 221 222 218 217 214 211 214 216 217 216 217 217 219 218 214 215 218 222
196 186 215 228 230 239 232 237 261 236 241 247 243 240 240 241 241 243 244 242 241 234 224 222 221 220 216 213 212 214 217 219 220 219 216 214 213 212 215 216 217 218 219 219 219 217 216 218 223
190 187 204 210 216 235 225 227 250 244 239 243 246 245 243 241 241 243 243 241 239 235 228 223 222 222 218 215 215 217 219 220 221 221 220 217 215 213 214 212 216 218 220 220 218 218 220 220 222
202 205 212 221 225 231 205 228 248 246 242 242 247 251 250 247 244 245 246 245 242 238 233 227 225 226 221 217 218 219 220 221 224 223 222 219 219 218 216 212 215 218 220 221 219 220 222 222 223
201 213 224 243 259 253 229 245 259 244 241 239 245 250 252 252 250 249 250 249 248 243 236 231 228 227 224 221 220 220 220 221 223 223 223 223 222 220 217 214 214 217 219 220 220 221 222 222 225
211 194 192 213 226 238 239 240 244 234 233 236 240 245 251 253 254 254 255 255 253 249 244 238 234 231 228 225 223 222 221 222 224 224 223 222 222 220 217 216 215 216 217 218 220 222 224 224 225
195 202 205 210 218 232 246 248 243 246 238 237 243 249 255 259 261 263 263 262 261 259 252 243 237 235 232 228 226 224 224 223 224 224 225 224 224 221 219 216 215 215 216 216 218 221 222 225 228
211 210 206 215 219 228 250 258 228 240 248 249 260 269 273 275 276 277 275 272 268 262 255 247 240 235 233 230 228 227 227 225 224 225 225 224 224 221 219 217 216 216 217 216 217 221 222 225 228